User: anonymous   Login
Location: Bush Observatory
(40.2653°N, 94.3194°W)
Time: 14:39:06
(UTC-05:00)
Language:

Cosmos 1933 Rocket - Orbit

View from above orbital plane
View from above orbital plane
View from above satellite
View from above satellite

Ground track
Ground track

The orbit data is extracted from the following two-line orbital elements,

1 18959U 88020B   14297.84087993  .00000745  00000-0  88742-4 0  3905
2 18959 082.5365 093.5965 0018433 085.3816 028.3332 14.82894998437344
Epoch (UTC): 24 October 2014 20:10:52
Eccentricity: 0.0018433
inclination: 82.5365°
perigee height: 607 km
apogee height: 633 km
right ascension of ascending node: 93.5965°
argument of perigee: 85.3816°
revolutions per day: 14.82894998
mean anomaly at epoch: 28.3332°
orbit number at epoch: 43734

The dashed part of the orbit path shows where the satellite is in the earth's shadow,  

DLR